Lid_Strength_Index
4 4 4 3 3 3 3 3 3 3 3 5 5 5 4 4 4 7 9 5 4 1 0 3 2 3 3 4 4 4 11 13 12 10 9 6 7 5 4 5 5 4 4 3 3
3 4 4 4 4 4 3 3 3 3 3 3 5 4 4 4 7 8 4 0 -0 -2 4 7 8 3 5 6 5 7 11 11 9 8 8 7 6 5 5 5 5 4 3 3 3
4 3 3 3 3 3 3 3 3 3 3 3 3 3 3 3 9 9 0 -0 0 -1 5 6 6 7 6 6 6 7 10 8 8 7 6 6 6 5 6 7 6 6 4 3 4
4 3 3 3 3 3 3 3 3 3 3 3 3 3 3 5 13 6 -1 -1 -2 2 6 7 8 10 11 9 6 8 6 6 6 5 6 6 5 6 6 6 5 4 4 4 4
3 3 3 3 3 3 3 3 3 3 3 3 4 3 5 9 10 5 -2 -1 4 4 7 9 10 11 12 10 7 8 7 6 5 5 5 5 6 6 6 5 4 4 4 5 5
4 4 4 4 4 3 3 3 3 3 3 3 3 3 7 13 6 6 5 4 3 5 6 8 10 9 10 10 10 7 6 6 6 6 6 6 6 6 5 4 4 4 5 5 4
3 4 4 4 4 4 3 3 4 3 3 3 3 4 8 10 6 6 6 7 7 6 6 5 4 6 8 10 8 8 9 8 7 7 7 6 8 7 5 5 5 5 5 4 4
3 4 4 4 4 4 3 3 4 3 3 3 3 6 11 5 5 6 6 7 6 6 7 6 6 8 8 7 8 9 9 12 9 8 7 7 10 6 5 5 5 5 4 4 4
4 3 3 3 3 3 3 3 3 3 3 3 5 7 11 4 7 6 6 7 7 7 7 6 7 9 9 11 12 10 12 11 10 7 7 8 9 6 5 5 5 5 5 4 4
3 3 3 3 3 3 3 3 3 2 4 4 4 8 7 8 6 5 5 6 7 7 8 9 10 11 12 13 16 13 12 10 11 8 7 8 8 6 5 6 6 5 5 5 4
3 3 3 3 3 4 5 7 9 9 7 9 9 8 6 5 4 7 6 7 7 8 13 11 13 14 13 11 10 10 10 11 9 7 8 8 8 7 6 7 7 7 6 6 5
4 4 3 3 3 3 5 7 7 8 12 7 8 8 7 6 10 8 6 10 10 13 10 11 14 11 9 10 10 11 12 12 10 7 8 8 9 7 6 6 6 6 6 6 5
4 3 3 3 2 4 4 4 1 2 10 8 6 7 7 7 9 9 8 9 11 13 12 13 12 10 10 10 11 11 12 12 12 9 9 9 11 10 8 7 6 6 6 6 6
4 3 2 1 3 2 3 1 1 2 11 9 7 5 4 6 9 5 6 8 10 13 12 13 11 10 11 11 10 13 9 10 10 11 14 9 14 10 9 8 7 6 6 6 6
3 2 1 1 3 3 2 0 1 3 19 8 7 3 5 6 6 6 3 7 11 10 11 14 13 12 12 11 9 12 8 9 10 11 12 12 13 12 9 9 8 8 6 6 6
2 1 1 1 2 1 0 1 3 13 19 10 6 7 8 7 7 6 5 4 5 9 10 12 9 10 12 11 9 9 10 10 10 12 15 13 13 14 11 9 8 7 6 6 6
2 1 2 1 4 1 1 4 13 17 9 10 9 7 8 8 8 7 8 9 12 14 13 11 10 9 9 12 10 11 12 16 16 16 17 12 13 12 10 8 7 7 7 6 6
2 2 2 1 0 1 3 9 17 11 11 7 8 8 10 8 8 8 9 10 8 10 13 14 15 9 8 11 13 13 12 15 19 18 16 11 15 13 8 7 7 6 6 6 6
2 2 2 1 0 1 6 15 15 11 8 9 8 10 10 9 9 10 10 10 9 8 14 14 13 7 8 8 9 13 14 11 14 13 15 14 12 9 8 9 8 7 7 7 6
5 4 3 1 1 3 10 12 10 7 7 7 11 9 12 11 11 12 12 8 9 7 8 10 14 9 9 9 8 9 10 14 13 17 18 14 13 13 10 9 9 8 8 7 6
5 6 3 2 1 7 13 11 8 6 6 8 10 10 10 11 11 11 11 9 8 8 8 10 12 12 10 11 12 11 13 13 13 13 16 17 15 9 10 9 9 8 7 7 6
5 9 3 2 9 9 12 8 6 7 6 7 8 9 10 10 11 11 12 11 8 8 11 9 13 15 12 9 8 9 12 12 15 15 13 14 14 9 8 9 8 7 7 6 6
6 6 2 3 12 11 8 8 7 7 8 9 8 8 8 10 13 11 11 8 7 8 10 10 14 18 15 11 9 11 10 10 12 11 14 15 14 9 8 7 7 7 7 6 6
6 10 6 5 6 9 9 9 9 6 7 7 8 7 9 10 9 11 11 8 7 8 6 8 12 14 18 15 12 14 12 11 12 14 13 12 12 10 8 8 8 7 6 6 6
5 8 7 11 10 9 8 9 11 10 7 7 9 9 10 13 11 12 10 9 7 7 9 9 14 13 12 12 11 12 12 12 13 13 13 11 11 10 8 9 7 7 6 6 6
7 8 7 8 8 8 9 11 11 10 9 10 10 9 9 12 11 12 10 10 11 9 10 10 15 13 14 11 11 13 11 11 12 11 12 11 12 7 8 7 7 7 6 7 6
4 4 6 8 9 10 10 9 10 9 7 7 8 9 10 9 7 7 7 7 8 10 10 11 13 15 17 12 13 16 12 12 11 10 10 13 10 8 9 8 8 7 6 6 6